This demonstration page uses our WeatherBlox Daily Observations layout. Learn more.

Hourly Observations for January 17, 2018

Temp ( °F °C ) Dew Point ( °F °C ) Humidity (%) Winds ( mph kmh ) Pressure ( in mb ) Visibility ( mi km ) Precip ( " mm )
12:15 am 00:15 Clear 8 -13.6 1 -17.1 75 75 SSW 10 17 30.71 1040 10 16.0934 0 0
12:35 am 00:35 Clear 8 -13.6 1 -17 76 76 SSW 9 15 30.71 1040 10 16.0934 0 0
12:55 am 00:55 Clear 7 -13.9 1 -17.1 77 77 SSW 8 13 30.74 1041 10 16.0934 0 0
1:15 am 01:15 Clear 7 -14 1 -17.2 77 77 SSW 9 15 30.74 1041 10 16.0934 0 0
1:35 am 01:35 Clear 7 -14.1 1 -17.2 78 78 SSW 10 17 30.71 1040 10 16.0934 0 0
1:55 am 01:55 Clear 7 -14 1 -17.4 76 76 SSW 10 17 30.71 1040 10 16.0934 0 0
2:15 am 02:15 Clear 7 -14.1 1 -17.3 77 77 SSW 10 17 30.71 1040 10 16.0934 0 0
2:35 am 02:35 Clear 7 -14.1 1 -17.2 78 78 SSW 9 15 30.71 1040 10 16.0934 0 0
2:55 am 02:55 Clear 7 -14 1 -17.2 77 77 SSW 12 19 30.71 1040 10 16.0934 0 0
3:15 am 03:15 Clear 7 -14 1 -17.2 77 77 SSW 12 19 30.71 1040 10 16.0934 0 0
3:35 am 03:35 Clear 7 -14 1 -17.3 76 76 SSW 12 19 30.71 1040 10 16.0934 0 0
3:55 am 03:55 Clear 7 -14 1 -17.5 75 75 SSW 12 19 30.71 1040 10 16.0934 0 0
4:15 am 04:15 Clear 7 -14 1 -17.5 75 75 SSW 12 19 30.71 1040 10 16.0934 0 0
4:35 am 04:35 Clear 7 -14 1 -17.5 75 75 SSW 13 20 30.65 1038 10 16.0934 0 0
4:55 am 04:55 Clear 7 -14 1 -17.5 75 75 SSW 13 20 30.65 1038 10 16.0934 0 0
5:15 am 05:15 Clear 7 -14.1 1 -17.5 76 76 SSW 14 22 30.65 1038 10 16.0934 0 0
5:35 am 05:35 Clear 7 -14.1 1 -17.5 76 76 SSW 14 22 30.62 1037 10 16.0934 0 0
5:55 am 05:55 Clear 7 -14.1 1 -17.5 76 76 SSW 10 17 30.62 1037 10 16.0934 0 0
6:15 am 06:15 Clear 6 -14.2 0 -17.6 76 76 SSW 12 19 30.62 1037 10 16.0934 0 0
6:35 am 06:35 Clear 6 -14.2 0 -17.7 75 75 SSW 9 15 30.62 1037 10 16.0934 0 0
6:55 am 06:55 Clear 6 -14.3 0 -17.8 75 75 SSW 7 11 30.62 1037 10 16.0934 0 0
7:15 am 07:15 Clear 6 -14.5 0 -18 75 75 SSW 9 15 30.62 1037 10 16.0934 0 0
7:35 am 07:35 Clear 6 -14.5 0 -18 75 75 SSW 10 17 30.62 1037 10 16.0934 0 0
7:55 am 07:55 Clear 6 -14.5 0 -18 75 75 SSW 10 17 30.62 1037 10 16.0934 0 0
8:15 am 08:15 Sunny 6 -14.2 0 -18 73 73 SSW 8 13 30.62 1037 10 16.0934 0 0
8:35 am 08:35 Sunny 7 -13.8 0 -17.7 73 73 SSW 9 15 30.62 1037 10 16.0934 0 0
8:55 am 08:55 Sunny 9 -13 1 -17.2 71 71 SSW 9 15 30.62 1037 10 16.0934 0 0
9:15 am 09:15 Sunny 11 -11.6 2 -16.5 67 67 SSW 9 15 30.59 1036 10 16.0934 0 0
9:35 am 09:35 Sunny 13 -10.5 3 -16 64 64 SW 12 19 30.59 1036 10 16.0934 0 0
9:55 am 09:55 Sunny 15 -9.7 3 -15.9 61 61 SSW 9 15 30.59 1036 10 16.0934 0 0
10:15 am 10:15 Sunny 16 -8.7 5 -14.9 61 61 SSW 8 13 30.62 1037 10 16.0934 0 0
10:35 am 10:35 Sunny 18 -7.8 6 -14.6 59 59 SW 13 20 30.56 1035 10 16.0934 0 0
10:55 am 10:55 Sunny 19 -7.1 7 -14.1 58 58 SW 13 20 30.56 1035 10 16.0934 0 0
11:15 am 11:15 Sunny 20 -6.5 8 -13.1 60 60 SW 13 20 30.56 1035 10 16.0934 0 0
11:35 am 11:35 Sunny 22 -5.6 10 -12.2 60 60 SW 10 17 30.53 1034 10 16.0934 0 0
11:55 am 11:55 Sunny 23 -4.8 11 -11.9 58 58 SSW 12 19 30.53 1034 10 16.0934 0 0
12:15 pm 12:15 Sunny 25 -4 11 -11.5 56 56 SSW 8 13 30.5 1033 10 16.0934 0 0
12:35 pm 12:35 Sunny 27 -2.8 13 -10.4 56 56 SW 10 17 30.48 1032 10 16.0934 0 0
12:55 pm 12:55 Sunny 28 -2.2 14 -10.2 55 55 SW 8 13 30.48 1032 10 16.0934 0 0
1:15 pm 13:15 Sunny 30 -1.3 14 -9.8 53 53 SSW 8 13 30.45 1031 10 16.0934 0 0
1:35 pm 13:35 Sunny 31 -0.5 15 -9.3 52 52 SSW 9 15 30.42 1030 10 16.0934 0 0
1:55 pm 13:55 Sunny 32 -0.1 15 -9.3 50 50 SSW 10 17 30.42 1030 10 16.0934 0 0
2:15 pm 14:15 Sunny 32 0 15 -9.4 50 50 SSW 9 15 30.42 1030 10 16.0934 0 0
2:35 pm 14:35 Sunny 33 0.4 16 -9 50 50 S 10 17 30.39 1029 10 16.0934 0 0
2:55 pm 14:55 Sunny 33 0.6 16 -8.7 50 50 S 12 19 30.39 1029 10 16.0934 0 0
3:15 pm 15:15 Sunny 34 1 17 -8.3 50 50 SSW 12 19 30.39 1029 10 16.0934 0 0
3:35 pm 15:35 Sunny 34 1.1 17 -8.4 50 50 SSW 9 15 30.39 1029 10 16.0934 0 0
3:55 pm 15:55 Sunny 35 1.5 18 -7.8 50 50 SSW 14 22 30.39 1029 10 16.0934 0 0
4:15 pm 16:15 Sunny 35 1.5 17 -8.2 49 49 S 12 19 30.39 1029 10 16.0934 0 0
4:35 pm 16:35 Sunny 34 1.3 17 -8.3 49 49 SSW 9 15 30.39 1029 10 16.0934 0 0
4:55 pm 16:55 Sunny 34 1 18 -7.8 52 52 SSW 6 9 30.39 1029 10 16.0934 0 0
5:15 pm 17:15 Sunny 33 0.5 18 -7.6 55 55 S 7 11 30.39 1029 10 16.0934 0 0
5:35 pm 17:35 Sunny 32 -0.2 18 -8 56 56 SSW 8 13 30.39 1029 10 16.0934 0 0
5:55 pm 17:55 Clear 30 -1.2 17 -8.2 59 59 SSW 7 11 30.42 1030 10 16.0934 0 0
6:15 pm 18:15 Clear 29 -1.6 17 -8.5 60 60 S 8 13 30.42 1030 10 16.0934 0 0
6:35 pm 18:35 Clear 28 -2.4 16 -8.7 62 62 S 8 13 30.42 1030 10 16.0934 0 0
6:55 pm 18:55 Clear 27 -2.6 16 -9 62 62 SSW 8 13 30.42 1030 10 16.0934 0 0
7:15 pm 19:15 Clear 25 -4.1 15 -9.3 67 67 SSW 5 7 30.45 1031 10 16.0934 0 0
7:35 pm 19:35 Clear 24 -4.7 15 -9.5 69 69 SSW 5 7 30.45 1031 10 16.0934 0 0
7:55 pm 19:55 Clear 23 -4.8 15 -9.5 70 70 SSW 5 7 30.45 1031 10 16.0934 0 0
8:15 pm 20:15 Clear 24 -4.4 15 -9.4 68 68 S 6 9 30.42 1030 10 16.0934 0 0
8:35 pm 20:35 Clear 23 -4.8 15 -9.4 71 71 S 6 9 30.42 1030 10 16.0934 0 0
8:55 pm 20:55 Clear 23 -5 15 -9.5 71 71 SSW 5 7 30.42 1030 10 16.0934 0 0
9:15 pm 21:15 Clear 23 -5.1 15 -9.5 72 72 SSW 8 13 30.39 1029 10 16.0934 0 0
9:35 pm 21:35 Clear 24 -4.6 16 -9.1 71 71 SW 8 13 30.39 1029 10 16.0934 0 0
9:55 pm 21:55 Clear 23 -4.9 15 -9.2 72 72 SSW 6 9 30.39 1029 10 16.0934 0 0
10:15 pm 22:15 Clear 23 -5.1 15 -9.3 73 73 SSW 6 9 30.39 1029 10 16.0934 0 0
10:35 pm 22:35 Clear 23 -5.2 15 -9.6 72 72 SSW 5 7 30.39 1029 10 16.0934 0 0
10:55 pm 22:55 Clear 21 -6 15 -9.7 75 75 SSW 6 9 30.39 1029 10 16.0934 0 0
11:15 pm 23:15 Clear 21 -5.9 14 -9.8 74 74 SSW 7 11 30.39 1029 10 16.0934 0 0
11:35 pm 23:35 Clear 21 -6 14 -10 74 74 SSW 6 9 30.36 1028 10 16.0934 0 0
11:55 pm 23:55 Clear 22 -5.7 15 -9.7 74 74 SW 8 13 30.36 1028 10 16.0934 0 0

Powered by AerisWeather